Location: Jerusalem
(31.7667°N, 35.2333°E)
Time: 08:12:17
(UTC+03:00)

ISS - Visible Passes

Search period start: 20 July 2018 00:00
Search period end: 30 July 2018 00:00
Orbit: 402 x 408 km, 51.6° (Epoch: 20 July)

Date Brightness Start Highest point End Pass type
(mag) Time Alt. Az. Time Alt. Az. Time Alt. Az.
20 Jul -3.5 04:58:57 10° NW 05:02:13 72° NE 05:05:30 10° SE visible
20 Jul -1.3 21:35:54 10° W 21:38:37 23° NW 21:41:18 10° NNE visible
21 Jul -1.9 04:07:05 10° NNW 04:10:05 32° NE 04:13:05 10° ESE visible
21 Jul -2.7 20:43:16 10° WSW 20:46:25 46° NW 20:49:35 10° NNE visible
22 Jul -0.9 03:15:31 10° N 03:17:51 18° NE 03:20:10 10° E visible
22 Jul -3.2 04:51:23 10° WNW 04:54:24 34° SW 04:57:24 10° SSE visible
22 Jul -0.3 21:30:06 10° NW 21:31:07 11° NNW 21:32:09 10° NNW visible
23 Jul -2.7 04:03:40 34° SE 04:03:40 34° SE 04:05:38 10° SE visible
23 Jul -0.8 20:36:22 10° W 20:38:46 19° NW 20:41:11 10° NNE visible
